Location: Culver City
(34.0211°N, 118.3965°W)
Time: 02:05:44
(UTC+00:00)

Daily predictions for brighter satellites

Satellite Brightness Start Highest point End
(mag) Time Altitude Azimuth Time Altitude Azimuth Time Altitude Azimuth
COSMOS 2406 3.2 03:30:01 10° S 03:35:44 71° ESE 03:41:27 10° NNE
NOSS 3-4 (A) 4.1 03:29:56 10° NNW 03:37:15 88° ENE 03:45:37 10° SSE
NOSS 3-4 (C) 4.1 03:29:58 10° NNW 03:37:18 87° ENE 03:45:35 10° SSE
CSL-04 Debris 4.4 03:33:39 10° SSE 03:38:56 57° ENE 03:44:14 10° N
SPOT 1/Viking Rocket 3.8 03:34:30 10° S 03:39:36 75° WSW 03:44:44 10° NNW
Cosmos 1092 Rocket 4.1 03:33:30 10° S 03:39:47 72° E 03:46:06 10° N
Cosmos 1980 Rocket 2.7 03:34:31 10° N 03:39:58 46° ENE 03:45:21 10° SE
FALCON 9 R/B 3.2 03:38:46 10° WSW 03:41:55 28° SSW 03:48:49 10° SE
Resurs 01 Rocket 1.6 03:47:42 10° SSE 03:52:05 78° ENE 03:56:30 10° N
USA 234 3.2 03:48:36 10° NE 03:55:05 66° SE 04:01:33 10° SSW
Terra 3.9 03:55:50 10° E 03:57:32 12° ENE 03:59:14 10° NE
Lacrosse 5 rocket 3.4 03:57:45 10° WNW 04:00:55 21° WSW 04:04:01 10° S
Cosmos 1470 3.9 03:59:09 10° NNE 04:02:12 24° ENE 04:04:12 16° ESE
CZ-4 R/B 3.1 04:01:16 10° SSW 04:04:45 30° W 04:08:18 10° NW
Cosmos 2026 Rocket 4.3 03:58:37 10° SSW 04:04:47 70° W 04:10:53 10° N
KORONAS-FOTON 3.7 04:03:26 10° S 04:07:05 62° E 04:10:47 10° NNE
CZ-4B R/B 3.7 04:06:57 10° S 04:12:06 56° W 04:17:19 10° NNW
Cosmos 1842 3.0 04:09:12 10° S 04:12:50 84° E 04:16:30 10° N
IRIDIUM 106 4.3 04:17:09 10° N 04:22:23 84° E 04:27:28 11° S
In-Cosmos 22 4.3 04:25:10 11° S 04:30:25 58° E 04:35:51 10° NNE
Cosmos 540 Rocket 3.6 04:26:04 10° N 04:31:08 57° ENE 04:34:01 25° SE
Cosmos 2360 Rocket 4.3 04:28:36 10° NNE 04:31:09 13° NE 04:33:42 10° E
Cosmos 1707 3.1 04:34:04 10° SSW 04:37:36 56° W 04:41:10 10° N
Cosmos 968 Rocket 4.4 04:37:09 25° ESE 04:38:09 27° E 04:42:26 10° NE
Okean-O 2.6 04:36:10 20° S 04:39:11 79° WSW 04:43:36 10° NNW
Cosmos 1741 Rocket 4.4 04:38:46 23° SSE 04:41:33 43° ESE 04:46:31 10° NNE
SL-16 R/B 3.1 04:37:31 10° N 04:42:38 34° ENE 04:45:05 24° ESE
SeaSat 1 3.4 04:42:03 24° ESE 04:44:12 35° ENE 04:48:37 10° N
Cosmos 2333 Rocket 4.1 04:41:12 10° NNE 04:44:37 16° NE 04:47:07 12° E
Cosmos 2369 4.1 04:40:59 10° NNW 04:46:38 62° WSW 04:50:32 20° S
USA 245 3.7 04:47:48 35° E 04:48:11 37° ENE 04:51:48 10° N
CZ-4C R/B 4.2 04:44:24 10° N 04:48:26 51° WNW 04:52:22 10° SSW
Atlas Centaur 2 3.0 04:42:50 10° W 04:50:53 68° S 04:56:31 23° ESE
Tiangong -1.8 04:51:21 10° WNW 04:54:28 56° NNE 04:54:54 50° ENE
SPOT 5 2.6 04:53:26 32° S 04:55:25 79° WSW 04:59:46 10° NNW
Cosmos 2228 Rocket 3.6 04:55:59 38° ESE 04:56:44 42° E 05:01:02 10° NNE
Cosmos 381 Rocket 4.4 04:51:48 10° NNW 04:58:10 83° ENE 05:01:22 31° SSE
Okean O Rocket 3.7 04:55:56 10° SSW 04:59:21 22° W 05:02:47 10° NW
ASTRO E2 3.7 04:56:42 10° WSW 04:58:37 26° SW 04:58:37 26° SW
IRS-1A Rocket 4.1 04:57:29 31° SSE 05:00:17 85° ENE 05:05:48 10° NNW
MetOp-B 4.2 04:57:48 26° S 05:00:52 75° WSW 05:06:14 10° NNW
Cosmos 1356 Rocket 3.7 05:01:42 45° ESE 05:01:55 45° E 05:05:57 10° NNE
SL-08 ROCKET BODY 4.4 04:58:26 21° S 05:02:41 83° E 05:08:47 10° N
Cosmos 1400 Rocket 2.8 05:03:49 37° SSW 05:05:17 75° W 05:09:09 10° N
Cosmos 1869 Rocket 3.5 05:01:42 10° N 05:06:10 83° E 05:07:23 48° SSE
ERS-1 Rocket 2.9 05:10:39 41° SSE 05:12:26 89° WSW 05:17:29 10° NNW
ATLAS CENTAUR R/B 1.8 05:11:14 16° SW 05:13:44 49° WNW 05:17:09 10° NNE
S3M 3.9 05:10:18 10° N 05:16:41 85° E 05:19:23 37° S
Cosmos 1300 3.6 05:14:42 10° N 05:17:15 34° NE 05:17:15 34° NE
Cosmos 1441 Rocket 4.0 05:15:46 10° NNW 05:19:12 42° W 05:19:50 38° WSW
Cosmos 2266 Rocket 4.4 05:15:24 16° SSW 05:20:29 64° W 05:26:50 10° N
Cosmos 841 Rocket 3.5 05:15:39 10° NNW 05:20:54 70° ENE 05:22:02 53° SE
Meteor 1-22 Rocket 4.2 05:16:16 10° N 05:22:01 89° W 05:24:08 42° S
Cosmos 1655 Rocket 4.0 05:19:20 31° S 05:22:41 89° E 05:29:07 10° N
Cosmos 1980 Rocket 4.3 05:19:32 10° NW 05:23:31 20° W 05:27:29 10° SW
Spot 2 Rocket 3.4 05:22:35 53° SSE 05:23:49 86° ENE 05:28:54 10° NNW
Cosmos 2322 Rocket 2.6 05:20:06 10° N 05:25:36 49° ENE 05:26:46 42° E
Aureole 3 4.1 05:27:56 40° NE 05:27:56 40° NE 05:31:13 10° NNE
Cosmos 1862 Rocket 3.4 05:32:16 80° E 05:32:16 80° E 05:36:41 10° N
Terra 2.1 05:33:36 49° SSW 05:34:32 60° W 05:39:12 10° NNW
Meteor 2-10 Rocket 3.5 05:31:05 10° N 05:36:36 88° W 05:37:35 61° S
Cosmos 2278 4.0 05:31:51 10° NNW 05:37:27 59° WSW 05:38:57 44° SSW
Meteor 1-21 4.2 05:36:20 46° SSW 05:38:12 86° W 05:44:02 10° N
Landsat 5 3.5 05:38:21 10° N 05:42:09 76° NNW 05:42:09 76° NNW
Okean 3 3.7 05:44:40 63° N 05:44:40 63° N 05:48:11 10° N
SL-14 R/B 4.5 05:47:52 34° W 05:48:07 34° W 05:51:37 10° NNW
Ariane Rocket 3.3 05:47:41 50° SW 05:48:33 57° W 05:53:33 10° NNW
Cosmos 2219 Rocket 3.3 05:46:04 10° N 05:51:02 30° ENE 05:51:37 30° ENE
Cosmos 1707 Rocket 4.4 05:52:13 42° WSW 05:52:52 45° W 05:57:09 10° N
SJ 16-02 1.6 05:53:27 64° NW 05:53:27 64° NW 05:57:31 10° N
Cosmos 1346 Rocket 3.8 05:58:28 10° NNW 06:01:14 42° NW 06:01:14 42° NW
COSMOS 2455 4.0 06:07:48 28° ENE 06:07:48 28° ENE 06:11:17 10° NE
ARIANE 5 R/B 4.2 06:08:40 26° NE 06:08:40 26° NE 06:11:17 10° N
RESURS DK-1 3.5 06:03:53 10° NW 06:06:46 38° WNW 06:06:46 38° WNW
CZ-4C R/B 4.1 06:13:08 13° ENE 06:13:08 13° ENE 06:13:50 10° NE
SL-08 R/B 4.3 06:10:00 74° ESE 06:10:17 76° E 06:16:22 10° N
Cosmos 2360 Rocket 2.1 06:10:06 10° NNW 06:15:45 80° WSW 06:15:45 80° WSW
Cosmos 1455 4.4 06:16:36 10° N 06:17:48 20° N 06:17:48 20° N
Cosmos 1733 Rocket 4.3 06:16:16 10° NNW 06:19:50 36° WNW 06:19:50 36° WNW
SeaSat 1 4.0 06:21:45 25° WSW 06:21:45 25° WSW 06:25:36 10° NW
Okean 1-7 4.1 06:24:32 43° NW 06:24:32 43° NW 06:27:47 10° N
ATLAS 2AS CENTAUR R/B 2.4 06:17:37 10° NNW 06:24:22 81° ENE 06:24:53 75° ESE
SL-16 R/B 3.6 06:21:49 10° NW 06:26:31 27° WSW 06:26:57 27° WSW
Cosmos 2333 Rocket 2.4 06:23:40 10° NNW 06:29:07 66° W 06:29:07 66° W
GP-B 4.3 06:27:55 10° N 06:30:43 38° NNE 06:30:43 38° NNE
USA 281 3.4 06:32:33 55° E 06:33:11 58° ENE 06:39:36 10° NNW
Cosmos 1814 Rocket 4.4 06:31:10 10° NNW 06:35:43 61° WNW 06:35:43 61° WNW
Atlas Centaur 2 3.5 06:32:11 10° W 06:38:43 44° SW 06:38:43 44° SW
Cosmos 2227 Rocket 4.2 06:52:28 16° ENE 06:52:28 16° ENE 06:54:08 10° NE
Cosmos 2237 Rocket 4.2 06:46:47 10° NNE 06:50:18 17° NE 06:51:07 16° ENE
Cosmos 2322 4.2 06:47:32 10° NNW 06:52:24 53° NE 06:52:24 53° NE
Cosmos 1745 Rocket 4.0 06:53:20 79° WNW 06:53:20 79° WNW 06:59:35 10° N
ALOS 2 4.5 07:00:33 26° NNE 07:00:33 26° NNE 07:02:50 10° N
Cosmos 2322 Rocket 4.1 07:05:19 10° WNW 07:08:34 18° W 07:08:34 18° W
Cosmos 839 Rocket 4.3 07:03:11 10° NW 07:08:45 57° W 07:08:45 57° W
Nadezhda 1 Rocket 4.1 07:03:19 10° N 07:09:03 70° NW 07:09:03 70° NW
Cosmos 2297 Rocket 3.0 07:11:25 45° NE 07:11:25 45° NE 07:15:22 10° NNE
CENTAUR R/B 3.8 07:20:44 25° ENE 07:20:44 25° ENE 07:23:48 10° NE
ATLAS 2A CENTAUR R/B 4.3 06:45:42 10° WSW 07:21:27 60° S 07:22:17 59° SSE
Meteor 2-5 Rocket 4.2 07:24:15 61° NNE 07:24:15 61° NNE 07:29:03 10° N
COSMOS 2428 3.3 07:28:55 10° NNW 07:33:09 51° NW 07:33:09 51° NW
Cosmos 2219 Rocket 3.7 07:29:56 10° NW 07:33:19 27° WNW 07:33:19 27° WNW
Cosmos 2263 Rocket 4.2 07:45:28 18° ENE 07:45:28 18° ENE 07:47:37 10° NE
COSMOS 2455 4.1 07:50:52 30° WNW 07:51:44 32° NW 07:57:04 10° N
NOSS 0 Rocket 4.3 07:48:53 10° NNW 07:54:00 61° NW 07:54:00 61° NW
CZ-4C R/B 3.7 07:58:11 23° NW 07:58:11 23° NW 08:02:11 10° N
NOSS 3-2 (A) 4.4 08:06:19 32° ENE 08:06:19 32° ENE 08:09:31 10° NE
Cosmos 2184 Rocket 4.2 08:07:26 71° NNE 08:07:26 71° NNE 08:13:03 10° N
SL-12 R/B(2) 4.0 08:08:53 79° SSW 08:09:28 90° WNW 08:18:36 10° NNE
Cosmos 2098 Rocket 4.5 08:05:36 10° NNW 08:11:08 53° WNW 08:11:08 53° WNW
SL-4 R/B 4.4 08:17:50 10° NNW 08:19:46 22° N 08:19:46 22° N
Cosmos 2154 Rocket 4.1 08:24:17 71° N 08:24:17 71° N 08:29:49 10° N
SL-16 R/B 3.6 08:22:35 10° N 08:27:36 31° ENE 08:28:23 30° ENE
H-2A R/B 4.2 08:26:09 10° N 08:28:00 22° NNW 08:28:00 22° NNW
Cosmos 2082 4.4 08:32:57 47° ENE 08:32:57 47° ENE 08:37:08 10° NNE
Cosmos 2227 Rocket 3.1 08:34:15 41° NW 08:34:15 41° NW 08:38:59 10° N
Cosmos 2237 Rocket 3.1 08:29:12 10° NNW 08:32:55 40° NW 08:32:55 40° NW
IDEFIX/ARIANE 42P 4.4 08:34:55 10° NE 08:38:13 21° E 08:38:13 21° E
CZ-2D R/B 4.0 08:45:25 10° NE 08:48:55 19° E 08:48:55 19° E
Cosmos 2297 Rocket 4.4 08:53:11 14° WNW 08:54:18 15° NW 08:57:21 10° NNW
Cosmos 2219 3.8 08:57:02 49° NW 08:57:02 49° NW 09:01:51 10° N
Cosmos 372 Rocket 4.5 09:02:01 57° NNE 09:02:01 57° NNE 09:06:11 10° NNE
CENTAUR R/B 3.6 09:07:50 29° WNW 09:08:51 30° NW 09:14:34 10° NNE
Cosmos 2341 Rocket 3.8 09:12:42 88° E 09:12:42 88° E 09:18:55 10° N
ADEOS II 3.8 09:10:41 10° NE 09:14:37 21° E 09:15:11 21° ESE
USA 238 DEB 4.0 09:16:15 44° ESE 09:16:15 44° ESE 09:22:14 10° NE
USA 238 4.0 09:16:17 43° ESE 09:16:17 43° ESE 09:22:17 10° NE
Cosmos 1937 Rocket 3.8 09:18:39 64° N 09:18:39 64° N 09:23:11 10° NNE
MOZ.5/SAFIR/RUBIN 5/SL-8 4.5 09:18:28 50° NE 09:18:28 50° NE 09:22:26 10° N
Cosmos 1898 Rocket 4.2 09:22:24 45° NW 09:22:24 45° NW 09:26:40 10° N
Cosmos 864 Rocket 4.4 09:22:44 80° SSE 09:23:06 86° E 09:29:27 10° N
Cosmos 1339 Rocket 4.5 09:18:17 10° NNW 09:24:38 69° W 09:24:38 69° W
Meteor 2-1 Rocket 4.2 09:19:00 10° N 09:24:53 80° E 09:25:02 79° ESE
Cosmos 2263 Rocket 2.9 09:27:08 40° WNW 09:27:08 40° WNW 09:32:13 10° N
Resurs 1-4 Rocket 2.6 09:23:14 10° NNE 09:28:21 49° E 09:28:26 49° ESE
Cosmos 1821 Rocket 4.0 09:44:40 58° SSE 09:45:46 72° E 09:51:52 10° N
Cosmos 1844 Rocket 3.1 09:45:59 49° SE 09:46:36 51° ESE 09:51:59 10° NNE
Cosmos 1437 Rocket 3.9 09:47:29 40° NE 09:47:29 40° NE 09:50:18 10° NNE
Cosmos 2218 Rocket 4.0 09:48:21 58° WSW 09:48:51 60° W 09:54:59 10° N
ALOS 3.9 09:46:54 10° NE 09:50:39 24° E 09:51:43 22° ESE
Cosmos 2366 rocket 4.3 09:55:01 48° W 09:55:35 50° W 10:01:39 10° N
Cosmos 1544 Rocket 4.1 09:51:36 10° NNW 09:55:05 52° NW 09:55:05 52° NW
Cosmos 2228 3.2 09:54:48 10° N 09:58:31 66° N 09:58:31 66° N
Cosmos 1680 Rocket 3.4 09:54:30 10° NNW 09:59:43 85° ENE 10:00:26 67° SSE
NOSS 3-2 (C) 3.9 10:00:08 37° WNW 10:00:53 39° NW 10:06:18 10° NNE
Cosmos 2112 Rocket 4.0 09:56:50 10° NNW 10:02:01 74° ENE 10:03:19 50° SE
Cosmos 1818 3.7 09:56:58 10° NNW 10:02:27 72° ENE 10:05:16 29° SE
MSX 3.9 10:02:02 10° N 10:07:40 61° WNW 10:08:36 54° WSW
COSMOS 2441 4.2 10:03:12 10° NNE 10:08:02 89° WNW 10:08:25 76° SSW
USA 267 3.2 10:02:47 10° NE 10:09:19 77° SE 10:11:21 47° SSW
SL-16 R/B 3.4 10:06:41 10° NW 10:10:12 27° WNW 10:10:12 27° WNW
H-2A R/B 4.4 10:08:53 10° N 10:11:52 35° NW 10:11:52 35° NW
IDEFIX/ARIANE 42P 3.3 10:13:38 10° N 10:18:25 37° WNW 10:18:57 36° W
SL-16 R/B 3.3 10:13:40 10° SE 10:19:41 52° ENE 10:25:43 10° N
CZ-2C R/B 2.5 10:18:44 56° SSW 10:19:43 70° WSW 10:25:03 10° NNW
SEDSat Delta rocket 3.6 10:20:59 38° ESE 10:20:59 38° ESE 10:23:48 10° E
Cosmos 1934 Rocket 4.4 10:20:51 26° SSE 10:24:23 61° E 10:30:38 10° NNE
CZ-2C R/B 3.2 10:19:43 10° N 10:24:56 58° WNW 10:25:53 50° WSW
Cosmos 1943 3.0 10:20:48 10° NNW 10:26:25 84° WSW 10:29:23 29° SSE
CZ-2D R/B 2.6 10:24:12 10° N 10:29:12 44° WNW 10:30:12 39° W
Cosmos 1606 Rocket 3.7 10:27:09 10° N 10:31:34 70° E 10:33:15 36° SSE
Cosmos 921 Rocket 3.6 10:27:44 10° N 10:31:51 51° ENE 10:34:31 20° SE
Mugunghwa Rocket 4.4 10:30:40 39° SSW 10:31:52 43° S 10:37:52 10° ESE
FENGYUN 3A 3.7 10:27:31 10° N 10:32:51 66° WNW 10:34:26 44° SW
ASTEX 1 3.4 10:31:48 35° SSE 10:33:51 81° E 10:38:43 10° N
Envisat 4.2 10:30:30 10° NNE 10:35:08 35° E 10:38:38 16° SSE
Iridium 2 4.3 10:40:08 32° NNE 10:40:08 32° NNE 10:41:40 10° N
Cosmos 1125 Rocket 3.6 10:38:11 36° S 10:40:21 74° ESE 10:45:38 10° NNE
Cosmos 1867 4.5 10:41:52 29° W 10:43:41 37° NW 10:48:44 10° NNE
CZ-2C R/B 4.1 10:41:14 10° NE 10:45:02 25° E 10:48:50 10° SSE
Cosmos 1726 Rocket 3.6 10:42:35 10° N 10:47:02 77° E 10:49:33 25° SSE
Cosmos 1812 3.8 10:43:44 10° N 10:47:06 39° E 10:49:38 16° SE
Cosmos 2058 3.1 10:48:11 31° SSE 10:49:55 63° E 10:53:56 10° NNE
Cosmos 494 Rocket 3.9 10:46:51 10° NNW 10:52:07 86° WSW 10:57:06 11° SSE
Cosmos 1727 Rocket 4.4 10:46:24 10° NNW 10:52:22 45° W 10:55:03 29° SW
ADEOS II 2.8 10:49:28 10° N 10:54:17 38° WNW 10:56:03 29° WSW
SAR-Lupe-4 3.4 10:52:30 10° N 10:56:02 71° WNW 10:56:48 50° SW
Cosmos 1844 4.4 10:57:17 28° WSW 10:59:42 41° WNW 11:05:10 10° N
IRAS Rocket 4.2 10:54:29 10° NNE 10:59:58 78° WNW 11:03:12 26° SSW
USA 81 4.0 11:00:03 10° N 11:05:20 85° E 11:10:23 11° S
Resurs 1-4 Rocket 3.8 11:04:16 10° NNW 11:07:41 18° WNW 11:09:29 15° W
ATLAS 5 CENTAUR R/B 1.6 11:06:36 28° S 11:07:52 44° ESE 11:11:04 10° NE
GOES 2 Rocket 4.4 11:08:49 21° S 11:08:49 21° S 11:11:42 10° SE
UNK 3.7 11:03:41 10° SSE 11:08:16 89° ENE 11:12:53 10° NNW
Iridium 4 Rocket 3.4 11:04:28 10° N 11:09:02 75° E 11:13:59 10° S
Meteor 1-28 Rocket 3.7 11:10:01 33° WSW 11:10:19 34° W 11:13:34 10° NNW
Timation 2 Rocket 4.2 11:08:51 24° SW 11:13:05 66° WNW 11:19:31 10° NNE
Cosmos 1544 2.0 11:13:19 51° S 11:13:52 86° WNW 11:16:29 10° N
NOSS 2-2 (E) 3.7 11:12:35 22° S 11:14:33 45° ESE 11:17:37 10° NE
Delta 2 Rocket 3.2 11:18:28 13° WNW 11:22:01 84° SSW 11:26:26 10° ESE
Cosmos 2058 Rocket 3.0 11:21:04 10° N 11:25:29 76° W 11:29:50 10° S
Thor Agena Rocket 4.3 11:20:28 10° NNE 11:25:37 53° E 11:30:43 10° S
Cosmos 1758 Rocket 4.3 11:22:10 10° S 11:26:28 53° E 11:30:47 10° NNE
ALOS 3.4 11:23:54 10° NNW 11:27:43 26° WNW 11:30:00 18° WSW
NOAA 11 4.2 11:23:04 10° N 11:28:33 76° WNW 11:33:30 13° SSW
Cosmos 1844 Rocket 4.3 11:27:38 13° W 11:30:44 19° WNW 11:34:38 10° NNW
NOSS 2-3 (D) 3.3 11:29:15 18° SSW 11:31:55 68° ESE 11:35:36 10° NE
Cosmos 2298 Rocket 4.1 11:29:42 17° SSW 11:33:48 64° WNW 11:39:06 10° N
METEOR-M 4.3 11:30:00 10° N 11:35:14 58° WNW 11:39:52 13° SSW
USA 276 4.5 11:41:45 10° SSE 11:43:26 14° SE 11:45:05 10° E
Cosmos 1607 3.9 11:39:20 10° NW 11:45:37 64° WSW 11:51:44 10° SSE
Cosmos 1605 Rocket 4.3 11:41:45 11° SSW 11:47:26 46° W 11:53:20 10° N
Cosmos 1626 Rocket 3.8 11:44:00 11° SSW 11:48:06 51° W 11:52:25 10° N
NOSS 2-2 (C) 3.9 11:46:57 15° WSW 11:49:22 32° WNW 11:52:14 10° N
CZ-4 R/B 4.5 11:45:09 10° N 11:49:47 42° WNW 11:54:24 10° SW
Cosmos 2278 Rocket 3.1 11:47:31 10° S 11:52:55 47° ESE 11:58:19 10° NNE
Cosmos 1862 3.4 11:49:56 10° S 11:53:42 73° E 11:57:30 10° N
